Printer-friendly version

IAU Minor Planet Center

Minor Planet Center

MPEC 2000-X04: 2000 WO67

The following Minor Planet Electronic Circular may be linked-to from your own Web pages, but must not otherwise be redistributed electronically.


Read MPEC 2000-X03 Read MPEC 2000-X05


M.P.E.C. 2000-X04                                Issued 2000 Dec. 1, 18:18 UT

     The Minor Planet Electronic Circulars contain information on unusual
         minor planets and routine data on comets.  They are published
   on behalf of Commission 20 of the International Astronomical Union by the
          Minor Planet Center, Smithsonian Astrophysical Observatory,
                          Cambridge, MA 02138, U.S.A.

             Prepared using the Tamkin Foundation Computer Network

                              MPC@CFA.HARVARD.EDU
          URL http://cfa-www.harvard.edu/iau/mpc.html  ISSN 1523-6714

                                   2000 WO67

Observations:
     K00W67O* C2000 11 27.36633 07 43 57.88 +15 40 40.5          18.8        704
     K00W67O  C2000 11 27.38128 07 43 56.90 +15 40 47.8          19.3        704
     K00W67O  C2000 11 27.39581 07 43 56.00 +15 40 54.3          19.0        704
     K00W67O  C2000 11 27.41032 07 43 55.10 +15 41 01.0          19.0        704
     K00W67O  C2000 11 27.42483 07 43 54.16 +15 41 08.0          19.1        704
     K00W67O  C2000 11 29.45672 07 41 45.54 +15 57 03.9          18.9        704
     K00W67O  C2000 11 29.47248 07 41 44.48 +15 57 10.4          19.1        704
     K00W67O  C2000 11 29.48893 07 41 43.20 +15 57 19.8          19.4        704
     K00W67O  C2000 11 29.51983 07 41 41.12 +15 57 34.3          19.3        704
     K00W67O  C2000 11 30.20378 07 40 55.12 +16 03 01.7                      557
     K00W67O  C2000 11 30.21410 07 40 54.41 +16 03 06.7                      557
     K00W67O  C2000 11 30.48944 07 40 35.52 +16 05 24.4                      711
     K00W67O  C2000 11 30.49621 07 40 35.04 +16 05 27.5                      711
     K00W67O  C2000 12 01.04016 07 39 57.51 +16 09 53.2          18.2 R      046
     K00W67O  C2000 12 01.04192 07 39 57.41 +16 09 54.1                      046
     K00W67O  C2000 12 01.04441 07 39 57.17 +16 09 55.2                      046
     K00W67O  C2000 12 01.04586 07 39 57.13 +16 09 56.0                      046
     K00W67O  C2000 12 01.04716 07 39 57.00 +16 09 57.1          18.3 R      046
     K00W67O fC2000 12 01.40643 07 39 31.41 +16 12 57.1                      711
     K00W67O  C2000 12 01.41517 07 39 30.79 +16 13 01.4                      711
     K00W67O  C2000 12 01.42400 07 39 30.14 +16 13 05.6                      711

Observer details:
046 Klet.  Observers M. Tichy, M. Kocer.  0.57-m f/5.2 reflector + CCD.
557 Ondrejov.  Observer P. Kusnirak.  0.65-m f/3.6 reflector + CCD.
704 Lincoln Laboratory ETS, New Mexico.  Observers M. Blythe, F. Shelly,
    M. Bezpalko, M. Elowitz, R. Huber, L. Manguso.  Measurers J. Stuart,
    R. Sayer, J. B. Evans, H. Viggh.  1.0-m f/2.15 reflector + CCD.
711 McDonald Observatory.  Observer J. G. Ries.  0.76-m reflector + CCD.

Orbital elements:
2000 WO67
Epoch 2000 Nov. 12.0 TT = JDT 2451860.5                 Spahr
M  25.69708              (2000.0)            P               Q
n   0.24571803     Peri.  239.50670     +0.96633801     +0.20650833
a   2.5245154      Node   108.20455     -0.14315317     +0.92715435
e   0.6275255      Incl.    9.29567     -0.21377096     +0.31263256
P   4.01           H   16.6           G   0.15
From 21 observations 2000 Nov. 27-Dec. 1.

Ephemeris:
2000 WO67                a,e,i = 2.52, 0.63, 9                   q = 0.9403
Date    TT    R. A. (2000) Decl.     Delta      r     Elong.  Phase     V
<2000 11 22    07 48.62   +15 02.1    0.951    1.708   123.5    28.8    18.9
2000 12 02    07 38.81   +16 17.9    0.947    1.793   136.1    22.4    18.8
2000 12 12    07 24.71   +17 46.7    0.960    1.877   149.8    15.3    18.7
2000 12 22    07 07.99   +19 18.8    0.995    1.960   164.1     7.9    18.6
2001 01 01    06 50.91   +20 44.2    1.058    2.041   177.5     1.2    18.4
2001 01 11    06 35.78   +21 56.1    1.149    2.120   167.4     5.8    19.0
2001 01 21    06 24.13   +22 53.0    1.267    2.197   154.6    11.1    19.5
2001 01 31    06 16.63   +23 36.6    1.409    2.273   142.6    15.3    20.0
2001 02 10    06 13.24   +24 09.9    1.571    2.346   131.7    18.3    20.4
2001 02 20    06 13.48   +24 35.2    1.748    2.418   121.7    20.4    20.7
2001 03 02    06 16.81   +24 54.1    1.936    2.488   112.3    21.6    21.1
2001 03 12    06 22.65   +25 07.3    2.132    2.556   103.7    22.2    21.3
2001 03 22    06 30.46   +25 15.3    2.332    2.622    95.5    22.2    21.6
2001 04 01    06 39.85   +25 18.1    2.534    2.686    87.7    21.8    21.8

Timothy B. Spahr             (C) Copyright 2000 MPC           M.P.E.C. 2000-X04

Read MPEC 2000-X03 Read MPEC 2000-X05


Our Web policy. Index to the CBAT/MPC/ICQ pages.


Valid HTML 4.01!